Year,Month,Day,Hour,Minute,Value (Times are PST for temperature in C)
2008,09,23,00,00,9.60
2008,09,23,00,01,9.60
2008,09,23,00,02,9.50
2008,09,23,00,03,9.50
2008,09,23,00,04,9.50
2008,09,23,00,05,9.40
2008,09,23,00,06,9.40
2008,09,23,00,07,9.40
2008,09,23,00,08,9.40
2008,09,23,00,09,9.40
2008,09,23,00,10,9.40
2008,09,23,00,11,9.40
2008,09,23,00,12,9.40
2008,09,23,00,13,9.30
2008,09,23,00,14,9.30
2008,09,23,00,15,9.30
2008,09,23,00,16,9.30
2008,09,23,00,17,9.30
2008,09,23,00,18,9.30
2008,09,23,00,19,9.20
2008,09,23,00,20,9.20
2008,09,23,00,21,9.20
2008,09,23,00,22,9.20
2008,09,23,00,23,9.20
2008,09,23,00,24,9.20
2008,09,23,00,25,9.20
2008,09,23,00,26,9.20
2008,09,23,00,27,9.30
2008,09,23,00,28,9.30
2008,09,23,00,29,9.20
2008,09,23,00,30,9.20
2008,09,23,00,31,9.20
2008,09,23,00,32,9.20
2008,09,23,00,33,9.20
2008,09,23,00,34,9.20
2008,09,23,00,35,9.20
2008,09,23,00,36,9.20
2008,09,23,00,37,9.20
2008,09,23,00,38,9.20
2008,09,23,00,39,9.20
2008,09,23,00,40,9.20
2008,09,23,00,41,9.20
2008,09,23,00,42,9.20
2008,09,23,00,43,9.20
2008,09,23,00,44,9.20
2008,09,23,00,45,9.20
2008,09,23,00,46,9.20
2008,09,23,00,47,9.20
2008,09,23,00,48,9.20
2008,09,23,00,49,9.20
2008,09,23,00,50,9.20
2008,09,23,00,51,9.20
2008,09,23,00,52,9.20
2008,09,23,00,53,9.20
2008,09,23,00,54,9.20
2008,09,23,00,55,9.20
2008,09,23,00,56,9.20
2008,09,23,00,57,9.20
2008,09,23,00,58,9.20
2008,09,23,00,59,9.20
2008,09,23,01,00,9.20
2008,09,23,01,01,9.20
2008,09,23,01,02,9.20
2008,09,23,01,03,9.20
2008,09,23,01,04,9.20
2008,09,23,01,05,9.20
2008,09,23,01,06,9.20
2008,09,23,01,07,9.20
2008,09,23,01,08,9.20
2008,09,23,01,09,9.10
2008,09,23,01,10,9.10
2008,09,23,01,11,9.10
2008,09,23,01,12,9.10
2008,09,23,01,13,9.10
2008,09,23,01,14,9.10
2008,09,23,01,15,9.10
2008,09,23,01,16,9.10
2008,09,23,01,17,9.10
2008,09,23,01,18,9.10
2008,09,23,01,19,9.10
2008,09,23,01,20,9.10
2008,09,23,01,21,9.10
2008,09,23,01,22,9.10
2008,09,23,01,23,9.00
2008,09,23,01,24,9.00
2008,09,23,01,25,9.00
2008,09,23,01,26,9.00
2008,09,23,01,27,9.00
2008,09,23,01,28,8.90
2008,09,23,01,29,8.90
2008,09,23,01,30,8.90
2008,09,23,01,31,8.90
2008,09,23,01,32,8.90
2008,09,23,01,33,8.90
2008,09,23,01,34,8.90
2008,09,23,01,35,8.90
2008,09,23,01,36,8.90
2008,09,23,01,37,8.90
2008,09,23,01,38,8.90
2008,09,23,01,39,8.90
2008,09,23,01,40,8.80
2008,09,23,01,41,8.80
2008,09,23,01,42,8.80
2008,09,23,01,43,8.80
2008,09,23,01,44,8.80
2008,09,23,01,45,8.80
2008,09,23,01,46,8.80
2008,09,23,01,47,8.70
2008,09,23,01,48,8.70
2008,09,23,01,49,8.70
2008,09,23,01,50,8.70
2008,09,23,01,51,8.70
2008,09,23,01,52,8.70
2008,09,23,01,53,8.60
2008,09,23,01,54,8.60
2008,09,23,01,55,8.60
2008,09,23,01,56,8.60
2008,09,23,01,57,8.60
2008,09,23,01,58,8.60
2008,09,23,01,59,8.60
2008,09,23,02,00,8.60
2008,09,23,02,01,8.50
2008,09,23,02,02,8.50
2008,09,23,02,03,8.50
2008,09,23,02,04,8.50
2008,09,23,02,05,8.50
2008,09,23,02,06,8.50
2008,09,23,02,07,8.50
2008,09,23,02,08,8.50
2008,09,23,02,09,8.50
2008,09,23,02,10,8.50
2008,09,23,02,11,8.50
2008,09,23,02,12,8.60
2008,09,23,02,13,8.60
2008,09,23,02,14,8.60
2008,09,23,02,15,8.50
2008,09,23,02,16,8.50
2008,09,23,02,17,8.50
2008,09,23,02,18,8.40
2008,09,23,02,19,8.30
2008,09,23,02,20,8.30
2008,09,23,02,21,8.20
2008,09,23,02,22,8.10
2008,09,23,02,23,8.00
2008,09,23,02,24,8.00
2008,09,23,02,25,7.80
2008,09,23,02,26,7.80
2008,09,23,02,27,7.80
2008,09,23,02,28,7.80
2008,09,23,02,29,7.80
2008,09,23,02,30,7.80
2008,09,23,02,31,7.90
2008,09,23,02,32,7.90
2008,09,23,02,33,8.00
2008,09,23,02,34,7.90
2008,09,23,02,35,7.90
2008,09,23,02,36,7.80
2008,09,23,02,37,7.80
2008,09,23,02,38,7.70
2008,09,23,02,39,7.70
2008,09,23,02,40,7.80
2008,09,23,02,41,7.80
2008,09,23,02,42,7.90
2008,09,23,02,43,8.00
2008,09,23,02,44,8.00
2008,09,23,02,45,8.10
2008,09,23,02,46,8.10
2008,09,23,02,47,8.10
2008,09,23,02,48,8.00
2008,09,23,02,49,7.90
2008,09,23,02,50,7.80
2008,09,23,02,51,7.70
2008,09,23,02,52,7.60
2008,09,23,02,53,7.60
2008,09,23,02,54,7.70
2008,09,23,02,55,7.70
2008,09,23,02,56,7.60
2008,09,23,02,57,7.60
2008,09,23,02,58,7.50
2008,09,23,02,59,7.50
2008,09,23,03,00,7.40
2008,09,23,03,01,7.30
2008,09,23,03,02,7.30
2008,09,23,03,03,7.20
2008,09,23,03,04,7.10
2008,09,23,03,05,7.00
2008,09,23,03,06,6.90
2008,09,23,03,07,6.80
2008,09,23,03,08,6.70
2008,09,23,03,09,6.70
2008,09,23,03,10,6.60
2008,09,23,03,11,6.60
2008,09,23,03,12,6.60
2008,09,23,03,13,6.60
2008,09,23,03,14,6.70
2008,09,23,03,15,6.70
2008,09,23,03,16,6.80
2008,09,23,03,17,6.80
2008,09,23,03,18,6.80
2008,09,23,03,19,6.80
2008,09,23,03,20,6.80
2008,09,23,03,21,6.80
2008,09,23,03,22,6.70
2008,09,23,03,23,6.70
2008,09,23,03,24,6.60
2008,09,23,03,25,6.50
2008,09,23,03,26,6.40
2008,09,23,03,27,6.30
2008,09,23,03,28,6.20
2008,09,23,03,29,6.20
2008,09,23,03,30,6.10
2008,09,23,03,31,6.00
2008,09,23,03,32,5.90
2008,09,23,03,33,5.90
2008,09,23,03,34,5.80
2008,09,23,03,35,5.70
2008,09,23,03,36,5.70
2008,09,23,03,37,5.70
2008,09,23,03,38,5.70
2008,09,23,03,39,5.70
2008,09,23,03,40,5.60
2008,09,23,03,41,5.60
2008,09,23,03,42,5.50
2008,09,23,03,43,5.50
2008,09,23,03,44,5.40
2008,09,23,03,45,5.40
2008,09,23,03,46,5.40
2008,09,23,03,47,5.40
2008,09,23,03,48,5.40
2008,09,23,03,49,5.30
2008,09,23,03,50,5.30
2008,09,23,03,51,5.30
2008,09,23,03,52,5.30
2008,09,23,03,53,5.30
2008,09,23,03,54,5.30
2008,09,23,03,55,5.30
2008,09,23,03,56,5.20
2008,09,23,03,57,5.20
2008,09,23,03,58,5.10
2008,09,23,03,59,5.10
2008,09,23,04,00,5.10
2008,09,23,04,01,5.10
2008,09,23,04,02,5.10
2008,09,23,04,03,5.10
2008,09,23,04,04,5.10
2008,09,23,04,05,5.10
2008,09,23,04,06,5.10
2008,09,23,04,07,5.10
2008,09,23,04,08,5.20
2008,09,23,04,09,5.30
2008,09,23,04,10,5.30
2008,09,23,04,11,5.30
2008,09,23,04,12,5.30
2008,09,23,04,13,5.30
2008,09,23,04,14,5.30
2008,09,23,04,15,5.30
2008,09,23,04,16,5.30
2008,09,23,04,17,5.30
2008,09,23,04,18,5.30
2008,09,23,04,19,5.30
2008,09,23,04,20,5.30
2008,09,23,04,21,5.30
2008,09,23,04,22,5.20
2008,09,23,04,23,5.20
2008,09,23,04,24,5.10
2008,09,23,04,25,5.10
2008,09,23,04,26,5.10
2008,09,23,04,27,5.10
2008,09,23,04,28,5.10
2008,09,23,04,29,5.10
2008,09,23,04,30,5.10
2008,09,23,04,31,5.10
2008,09,23,04,32,5.10
2008,09,23,04,33,5.10
2008,09,23,04,34,5.10
2008,09,23,04,35,5.10
2008,09,23,04,36,5.10
2008,09,23,04,37,5.10
2008,09,23,04,38,5.10
2008,09,23,04,39,5.10
2008,09,23,04,40,5.00
2008,09,23,04,41,4.90
2008,09,23,04,42,4.90
2008,09,23,04,43,4.90
2008,09,23,04,44,4.90
2008,09,23,04,45,4.90
2008,09,23,04,46,4.90
2008,09,23,04,47,4.90
2008,09,23,04,48,4.90
2008,09,23,04,49,4.90
2008,09,23,04,50,4.90
2008,09,23,04,51,4.90
2008,09,23,04,52,4.90
2008,09,23,04,53,4.90
2008,09,23,04,54,4.90
2008,09,23,04,55,4.90
2008,09,23,04,56,4.90
2008,09,23,04,57,4.90
2008,09,23,04,58,4.90
2008,09,23,04,59,4.90
2008,09,23,05,00,4.90
2008,09,23,05,01,4.90
2008,09,23,05,02,4.90
2008,09,23,05,03,4.90
2008,09,23,05,04,4.90
2008,09,23,05,05,5.00
2008,09,23,05,06,5.10
2008,09,23,05,07,5.10
2008,09,23,05,08,5.10
2008,09,23,05,09,5.10
2008,09,23,05,10,5.10
2008,09,23,05,11,5.20
2008,09,23,05,12,5.20
2008,09,23,05,13,5.20
2008,09,23,05,14,5.20
2008,09,23,05,15,5.20
2008,09,23,05,16,5.10
2008,09,23,05,17,5.10
2008,09,23,05,18,5.10
2008,09,23,05,19,5.10
2008,09,23,05,20,5.10
2008,09,23,05,21,5.10
2008,09,23,05,22,5.10
2008,09,23,05,23,4.90
2008,09,23,05,24,4.90
2008,09,23,05,25,4.90
2008,09,23,05,26,4.90
2008,09,23,05,27,4.90
2008,09,23,05,28,4.90
2008,09,23,05,29,4.90
2008,09,23,05,30,4.90
2008,09,23,05,31,4.90
2008,09,23,05,32,4.90
2008,09,23,05,33,4.90
2008,09,23,05,34,4.90
2008,09,23,05,35,4.90
2008,09,23,05,36,4.90
2008,09,23,05,37,4.90
2008,09,23,05,38,4.90
2008,09,23,05,39,5.10
2008,09,23,05,40,5.10
2008,09,23,05,41,5.10
2008,09,23,05,42,5.10
2008,09,23,05,43,5.20
2008,09,23,05,44,5.20
2008,09,23,05,45,5.30
2008,09,23,05,46,5.30
2008,09,23,05,47,5.30
2008,09,23,05,48,5.30
2008,09,23,05,49,5.30
2008,09,23,05,50,5.30
2008,09,23,05,51,5.30
2008,09,23,05,52,5.30
2008,09,23,05,53,5.20
2008,09,23,05,54,5.10
2008,09,23,05,55,5.10
2008,09,23,05,56,4.90
2008,09,23,05,57,4.90
2008,09,23,05,58,4.80
2008,09,23,05,59,4.80
2008,09,23,06,00,4.80
2008,09,23,06,01,4.80
2008,09,23,06,02,4.70
2008,09,23,06,03,4.70
2008,09,23,06,04,4.70
2008,09,23,06,05,4.70
2008,09,23,06,06,4.70
2008,09,23,06,07,4.70
2008,09,23,06,08,4.70
2008,09,23,06,09,4.60
2008,09,23,06,10,4.60
2008,09,23,06,11,4.60
2008,09,23,06,12,4.60
2008,09,23,06,13,4.50
2008,09,23,06,14,4.40
2008,09,23,06,15,4.40
2008,09,23,06,16,4.30
2008,09,23,06,17,4.20
2008,09,23,06,18,4.10
2008,09,23,06,19,4.10
2008,09,23,06,20,4.00
2008,09,23,06,21,3.90
2008,09,23,06,22,3.80
2008,09,23,06,23,3.80
2008,09,23,06,24,3.80
2008,09,23,06,25,3.80
2008,09,23,06,26,3.70
2008,09,23,06,27,3.70
2008,09,23,06,28,3.60
2008,09,23,06,29,3.60
2008,09,23,06,30,3.60
2008,09,23,06,31,3.60
2008,09,23,06,32,3.60
2008,09,23,06,33,3.60
2008,09,23,06,34,3.60
2008,09,23,06,35,3.60
2008,09,23,06,36,3.60
2008,09,23,06,37,3.60
2008,09,23,06,38,3.70
2008,09,23,06,39,3.70
2008,09,23,06,40,3.70
2008,09,23,06,41,3.80
2008,09,23,06,42,3.80
2008,09,23,06,43,3.80
2008,09,23,06,44,3.80
2008,09,23,06,45,3.80
2008,09,23,06,46,3.90
2008,09,23,06,47,3.90
2008,09,23,06,48,4.00
2008,09,23,06,49,4.00
2008,09,23,06,50,4.00
2008,09,23,06,51,4.10
2008,09,23,06,52,4.20
2008,09,23,06,53,4.20
2008,09,23,06,54,4.30
2008,09,23,06,55,4.30
2008,09,23,06,56,4.30
2008,09,23,06,57,4.40
2008,09,23,06,58,4.40
2008,09,23,06,59,4.40
2008,09,23,07,00,4.40
2008,09,23,07,01,4.40
2008,09,23,07,02,4.40
2008,09,23,07,03,4.40
2008,09,23,07,04,4.40
2008,09,23,07,05,4.40
2008,09,23,07,06,4.40
2008,09,23,07,07,4.40
2008,09,23,07,08,4.40
2008,09,23,07,09,4.40
2008,09,23,07,10,4.50
2008,09,23,07,11,4.50
2008,09,23,07,12,4.60
2008,09,23,07,13,4.60
2008,09,23,07,14,4.60
2008,09,23,07,15,4.70
2008,09,23,07,16,4.80
2008,09,23,07,17,4.80
2008,09,23,07,18,4.80
2008,09,23,07,19,4.90
2008,09,23,07,20,4.90
2008,09,23,07,21,4.90
2008,09,23,07,22,5.00
2008,09,23,07,23,5.10
2008,09,23,07,24,5.10
2008,09,23,07,25,5.10
2008,09,23,07,26,5.10
2008,09,23,07,27,5.10
2008,09,23,07,28,5.10
2008,09,23,07,29,5.10
2008,09,23,07,30,5.10
2008,09,23,07,31,5.10
2008,09,23,07,32,5.10
2008,09,23,07,33,5.10
2008,09,23,07,34,5.10
2008,09,23,07,35,5.10
2008,09,23,07,36,5.10
2008,09,23,07,37,5.10
2008,09,23,07,38,5.10
2008,09,23,07,39,5.10
2008,09,23,07,40,5.10
2008,09,23,07,41,5.10
2008,09,23,07,42,5.10
2008,09,23,07,43,5.10
2008,09,23,07,44,5.10
2008,09,23,07,45,5.30
2008,09,23,07,46,5.30
2008,09,23,07,47,5.40
2008,09,23,07,48,5.50
2008,09,23,07,49,5.50
2008,09,23,07,50,5.50
2008,09,23,07,51,5.60
2008,09,23,07,52,5.60
2008,09,23,07,53,5.60
2008,09,23,07,54,5.70
2008,09,23,07,55,5.70
2008,09,23,07,56,5.70
2008,09,23,07,57,5.80
2008,09,23,07,58,5.80
2008,09,23,07,59,5.80
2008,09,23,08,00,5.70
2008,09,23,08,01,5.70
2008,09,23,08,02,5.60
2008,09,23,08,03,5.50
2008,09,23,08,04,5.40
2008,09,23,08,05,5.40
2008,09,23,08,06,5.40
2008,09,23,08,07,5.30
2008,09,23,08,08,5.40
2008,09,23,08,09,5.50
2008,09,23,08,10,5.60
2008,09,23,08,11,5.70
2008,09,23,08,12,5.70
2008,09,23,08,13,5.80
2008,09,23,08,14,5.80
2008,09,23,08,15,5.80
2008,09,23,08,16,5.90
2008,09,23,08,17,5.90
2008,09,23,08,18,5.90
2008,09,23,08,19,6.00
2008,09,23,08,20,6.00
2008,09,23,08,21,6.10
2008,09,23,08,22,6.10
2008,09,23,08,23,6.20
2008,09,23,08,24,6.20
2008,09,23,08,25,6.20
2008,09,23,08,26,6.20
2008,09,23,08,27,6.30
2008,09,23,08,28,6.30
2008,09,23,08,29,6.40
2008,09,23,08,30,6.40
2008,09,23,08,31,6.40
2008,09,23,08,32,6.40
2008,09,23,08,33,6.40
2008,09,23,08,34,6.40
2008,09,23,08,35,6.50
2008,09,23,08,36,6.60
2008,09,23,08,37,6.60
2008,09,23,08,38,6.60
2008,09,23,08,39,6.60
2008,09,23,08,40,6.70
2008,09,23,08,41,6.70
2008,09,23,08,42,6.80
2008,09,23,08,43,6.80
2008,09,23,08,44,6.80
2008,09,23,08,45,6.80
2008,09,23,08,46,6.90
2008,09,23,08,47,7.00
2008,09,23,08,48,7.10
2008,09,23,08,49,7.10
2008,09,23,08,50,7.20
2008,09,23,08,51,7.30
2008,09,23,08,52,7.40
2008,09,23,08,53,7.50
2008,09,23,08,54,7.60
2008,09,23,08,55,7.70
2008,09,23,08,56,7.80
2008,09,23,08,57,7.80
2008,09,23,08,58,7.90
2008,09,23,08,59,7.90
2008,09,23,09,00,8.00
2008,09,23,09,01,8.10
2008,09,23,09,02,8.20
2008,09,23,09,03,8.20
2008,09,23,09,04,8.20
2008,09,23,09,05,8.30
2008,09,23,09,06,8.40
2008,09,23,09,07,8.40
2008,09,23,09,08,8.40
2008,09,23,09,09,8.50
2008,09,23,09,10,8.50
2008,09,23,09,11,8.60
2008,09,23,09,12,8.70
2008,09,23,09,13,8.70
2008,09,23,09,14,8.70
2008,09,23,09,15,8.70
2008,09,23,09,16,8.80
2008,09,23,09,17,8.80
2008,09,23,09,18,8.80
2008,09,23,09,19,8.90
2008,09,23,09,20,8.90
2008,09,23,09,21,8.90
2008,09,23,09,22,9.00
2008,09,23,09,23,9.00
2008,09,23,09,24,9.00
2008,09,23,09,25,9.00
2008,09,23,09,26,9.10
2008,09,23,09,27,9.10
2008,09,23,09,28,9.20
2008,09,23,09,29,9.20
2008,09,23,09,30,9.20
2008,09,23,09,31,9.20
2008,09,23,09,32,9.20
2008,09,23,09,33,9.20
2008,09,23,09,34,9.30
2008,09,23,09,35,9.40
2008,09,23,09,36,9.40
2008,09,23,09,37,9.50
2008,09,23,09,38,9.60
2008,09,23,09,39,9.70
2008,09,23,09,40,9.70
2008,09,23,09,41,9.70
2008,09,23,09,42,9.70
2008,09,23,09,43,9.70
2008,09,23,09,44,9.70
2008,09,23,09,45,9.80
2008,09,23,09,46,9.80
2008,09,23,09,47,9.90
2008,09,23,09,48,10.00
2008,09,23,09,49,10.10
2008,09,23,09,50,10.20
2008,09,23,09,51,10.30
2008,09,23,09,52,10.40
2008,09,23,09,53,10.40
2008,09,23,09,54,10.50
2008,09,23,09,55,10.60
2008,09,23,09,56,10.70
2008,09,23,09,57,10.80
2008,09,23,09,58,10.90
2008,09,23,09,59,10.90
2008,09,23,10,00,10.90
2008,09,23,10,01,10.90
2008,09,23,10,02,10.90
2008,09,23,10,03,10.90
2008,09,23,10,04,10.90
2008,09,23,10,05,10.90
2008,09,23,10,06,10.90
2008,09,23,10,07,10.90
2008,09,23,10,08,10.90
2008,09,23,10,09,10.90
2008,09,23,10,10,10.90
2008,09,23,10,11,10.90
2008,09,23,10,12,11.10
2008,09,23,10,13,11.10
2008,09,23,10,14,11.20
2008,09,23,10,15,11.30
2008,09,23,10,16,11.30
2008,09,23,10,17,11.30
2008,09,23,10,18,11.30
2008,09,23,10,19,11.30
2008,09,23,10,20,11.30
2008,09,23,10,21,11.40
2008,09,23,10,22,11.40
2008,09,23,10,23,11.40
2008,09,23,10,24,11.50
2008,09,23,10,25,11.60
2008,09,23,10,26,11.60
2008,09,23,10,27,11.60
2008,09,23,10,28,11.60
2008,09,23,10,29,11.60
2008,09,23,10,30,11.60
2008,09,23,10,31,11.40
2008,09,23,10,32,11.40
2008,09,23,10,33,11.40
2008,09,23,10,34,11.40
2008,09,23,10,35,11.40
2008,09,23,10,36,11.60
2008,09,23,10,37,11.60
2008,09,23,10,38,11.60
2008,09,23,10,39,11.60
2008,09,23,10,40,11.70
2008,09,23,10,41,11.80
2008,09,23,10,42,11.80
2008,09,23,10,43,11.80
2008,09,23,10,44,11.80
2008,09,23,10,45,11.80
2008,09,23,10,46,11.80
2008,09,23,10,47,11.80
2008,09,23,10,48,11.80
2008,09,23,10,49,11.80
2008,09,23,10,50,11.90
2008,09,23,10,51,11.90
2008,09,23,10,52,12.00
2008,09,23,10,53,12.10
2008,09,23,10,54,12.10
2008,09,23,10,55,12.20
2008,09,23,10,56,12.20
2008,09,23,10,57,12.30
2008,09,23,10,58,12.20
2008,09,23,10,59,12.20
2008,09,23,11,00,12.20
2008,09,23,11,01,12.20
2008,09,23,11,02,12.20
2008,09,23,11,03,12.20
2008,09,23,11,04,12.20
2008,09,23,11,05,12.30
2008,09,23,11,06,12.30
2008,09,23,11,07,12.30
2008,09,23,11,08,12.40
2008,09,23,11,09,12.40
2008,09,23,11,10,12.50
2008,09,23,11,11,12.40
2008,09,23,11,12,12.30
2008,09,23,11,13,12.30
2008,09,23,11,14,12.30
2008,09,23,11,15,12.20
2008,09,23,11,16,12.10
2008,09,23,11,17,12.00
2008,09,23,11,18,12.00
2008,09,23,11,19,12.00
2008,09,23,11,20,12.00
2008,09,23,11,21,12.10
2008,09,23,11,22,12.20
2008,09,23,11,23,12.20
2008,09,23,11,24,12.30
2008,09,23,11,25,12.30
2008,09,23,11,26,12.30
2008,09,23,11,27,12.40
2008,09,23,11,28,12.40
2008,09,23,11,29,12.50
2008,09,23,11,30,12.50
2008,09,23,11,31,12.60
2008,09,23,11,32,12.70
2008,09,23,11,33,12.70
2008,09,23,11,34,12.70
2008,09,23,11,35,12.70
2008,09,23,11,36,12.60
2008,09,23,11,37,12.60
2008,09,23,11,38,12.60
2008,09,23,11,39,12.60
2008,09,23,11,40,12.60
2008,09,23,11,41,12.50
2008,09,23,11,42,12.60
2008,09,23,11,43,12.60
2008,09,23,11,44,12.60
2008,09,23,11,45,12.60
2008,09,23,11,46,12.70
2008,09,23,11,47,12.70
2008,09,23,11,48,12.70
2008,09,23,11,49,12.70
2008,09,23,11,50,12.70
2008,09,23,11,51,12.70
2008,09,23,11,52,12.70
2008,09,23,11,53,12.70
2008,09,23,11,54,12.70
2008,09,23,11,55,12.70
2008,09,23,11,56,12.70
2008,09,23,11,57,12.70
2008,09,23,11,58,12.80
2008,09,23,11,59,12.80
2008,09,23,12,00,12.80
2008,09,23,12,01,12.80
2008,09,23,12,02,12.80
2008,09,23,12,03,12.80
2008,09,23,12,04,12.80
2008,09,23,12,05,12.80
2008,09,23,12,06,12.80
2008,09,23,12,07,12.60
2008,09,23,12,08,12.60
2008,09,23,12,09,12.60
2008,09,23,12,10,12.40
2008,09,23,12,11,12.40
2008,09,23,12,12,12.50
2008,09,23,12,13,12.60
2008,09,23,12,14,12.70
2008,09,23,12,15,12.80
2008,09,23,12,16,12.80
2008,09,23,12,17,12.80
2008,09,23,12,18,12.80
2008,09,23,12,19,12.80
2008,09,23,12,20,12.80
2008,09,23,12,21,12.70
2008,09,23,12,22,12.80
2008,09,23,12,23,12.80
2008,09,23,12,24,12.90
2008,09,23,12,25,12.90
2008,09,23,12,26,12.90
2008,09,23,12,27,13.00
2008,09,23,12,28,13.00
2008,09,23,12,29,13.10
2008,09,23,12,30,13.20
2008,09,23,12,31,13.20
2008,09,23,12,32,13.20
2008,09,23,12,33,13.30
2008,09,23,12,34,13.40
2008,09,23,12,35,13.50
2008,09,23,12,36,13.60
2008,09,23,12,37,13.70
2008,09,23,12,38,13.80
2008,09,23,12,39,13.90
2008,09,23,12,40,13.90
2008,09,23,12,41,14.00
2008,09,23,12,42,14.00
2008,09,23,12,43,14.00
2008,09,23,12,44,14.00
2008,09,23,12,45,14.00
2008,09,23,12,46,14.10
2008,09,23,12,47,14.10
2008,09,23,12,48,14.10
2008,09,23,12,49,14.10
2008,09,23,12,50,14.10
2008,09,23,12,51,14.20
2008,09,23,12,52,14.20
2008,09,23,12,53,14.20
2008,09,23,12,54,14.20
2008,09,23,12,55,14.20
2008,09,23,12,56,14.20
2008,09,23,12,57,14.20
2008,09,23,12,58,14.10
2008,09,23,12,59,14.00
2008,09,23,13,00,13.90
2008,09,23,13,01,13.90
2008,09,23,13,02,13.90
2008,09,23,13,03,13.90
2008,09,23,13,04,13.90
2008,09,23,13,05,13.90
2008,09,23,13,06,13.90
2008,09,23,13,07,14.00
2008,09,23,13,08,14.00
2008,09,23,13,09,14.00
2008,09,23,13,10,14.10
2008,09,23,13,11,14.10
2008,09,23,13,12,14.10
2008,09,23,13,13,14.10
2008,09,23,13,14,14.10
2008,09,23,13,15,14.10
2008,09,23,13,16,14.10
2008,09,23,13,17,14.10
2008,09,23,13,18,14.20
2008,09,23,13,19,14.20
2008,09,23,13,20,14.20
2008,09,23,13,21,14.20
2008,09,23,13,22,14.20
2008,09,23,13,23,14.20
2008,09,23,13,24,14.20
2008,09,23,13,25,14.20
2008,09,23,13,26,14.20
2008,09,23,13,27,14.20
2008,09,23,13,28,14.20
2008,09,23,13,29,14.20
2008,09,23,13,30,14.20
2008,09,23,13,31,14.10
2008,09,23,13,32,14.00
2008,09,23,13,33,14.00
2008,09,23,13,34,13.90
2008,09,23,13,35,13.90
2008,09,23,13,36,14.00
2008,09,23,13,37,14.00
2008,09,23,13,38,14.00
2008,09,23,13,39,13.90
2008,09,23,13,40,13.90
2008,09,23,13,41,13.90
2008,09,23,13,42,13.90
2008,09,23,13,43,13.90
2008,09,23,13,44,14.00
2008,09,23,13,45,14.10
2008,09,23,13,46,14.10
2008,09,23,13,47,14.20
2008,09,23,13,48,14.20
2008,09,23,13,49,14.20
2008,09,23,13,50,14.20
2008,09,23,13,51,14.20
2008,09,23,13,52,14.20
2008,09,23,13,53,14.20
2008,09,23,13,54,14.20
2008,09,23,13,55,14.20
2008,09,23,13,56,14.20
2008,09,23,13,57,14.20
2008,09,23,13,58,14.10
2008,09,23,13,59,14.00
2008,09,23,14,00,14.00
2008,09,23,14,01,14.00
2008,09,23,14,02,14.00
2008,09,23,14,03,14.00
2008,09,23,14,04,14.00
2008,09,23,14,05,14.10
2008,09,23,14,06,14.20
2008,09,23,14,07,14.20
2008,09,23,14,08,14.20
2008,09,23,14,09,14.10
2008,09,23,14,10,14.10
2008,09,23,14,11,14.10
2008,09,23,14,12,14.10
2008,09,23,14,13,14.00
2008,09,23,14,14,14.00
2008,09,23,14,15,14.00
2008,09,23,14,16,14.00
2008,09,23,14,17,14.00
2008,09,23,14,18,14.00
2008,09,23,14,19,14.10
2008,09,23,14,20,14.10
2008,09,23,14,21,14.10
2008,09,23,14,22,14.10
2008,09,23,14,23,14.10
2008,09,23,14,24,14.20
2008,09,23,14,25,14.20
2008,09,23,14,26,14.20
2008,09,23,14,27,14.20
2008,09,23,14,28,14.20
2008,09,23,14,29,14.30
2008,09,23,14,30,14.30
2008,09,23,14,31,14.30
2008,09,23,14,32,14.40
2008,09,23,14,33,14.40
2008,09,23,14,34,14.50
2008,09,23,14,35,14.60
2008,09,23,14,36,14.60
2008,09,23,14,37,14.60
2008,09,23,14,38,14.60
2008,09,23,14,39,14.60
2008,09,23,14,40,14.60
2008,09,23,14,41,14.60
2008,09,23,14,42,14.60
2008,09,23,14,43,14.60
2008,09,23,14,44,14.60
2008,09,23,14,45,14.60
2008,09,23,14,46,14.60
2008,09,23,14,47,14.50
2008,09,23,14,48,14.50
2008,09,23,14,49,14.40
2008,09,23,14,50,14.30
2008,09,23,14,51,14.30
2008,09,23,14,52,14.20
2008,09,23,14,53,14.20
2008,09,23,14,54,14.20
2008,09,23,14,55,14.10
2008,09,23,14,56,14.10
2008,09,23,14,57,14.10
2008,09,23,14,58,14.00
2008,09,23,14,59,14.00
2008,09,23,15,00,14.00
2008,09,23,15,01,13.90
2008,09,23,15,02,13.90
2008,09,23,15,03,13.90
2008,09,23,15,04,13.90
2008,09,23,15,05,13.90
2008,09,23,15,06,13.90
2008,09,23,15,07,13.90
2008,09,23,15,08,13.90
2008,09,23,15,09,13.90
2008,09,23,15,10,14.00
2008,09,23,15,11,14.00
2008,09,23,15,12,14.00
2008,09,23,15,13,14.00
2008,09,23,15,14,14.10
2008,09,23,15,15,14.10
2008,09,23,15,16,14.20
2008,09,23,15,17,14.20
2008,09,23,15,18,14.20
2008,09,23,15,19,14.20
2008,09,23,15,20,14.20
2008,09,23,15,21,14.20
2008,09,23,15,22,14.20
2008,09,23,15,23,14.20
2008,09,23,15,24,14.10
2008,09,23,15,25,14.10
2008,09,23,15,26,14.00
2008,09,23,15,27,14.00
2008,09,23,15,28,13.90
2008,09,23,15,29,13.90
2008,09,23,15,30,13.90
2008,09,23,15,31,13.90
2008,09,23,15,32,13.90
2008,09,23,15,33,13.80
2008,09,23,15,34,13.80
2008,09,23,15,35,13.80
2008,09,23,15,36,13.80
2008,09,23,15,37,13.90
2008,09,23,15,38,13.90
2008,09,23,15,39,13.90
2008,09,23,15,40,13.90
2008,09,23,15,41,13.80
2008,09,23,15,42,13.80
2008,09,23,15,43,13.80
2008,09,23,15,44,13.80
2008,09,23,15,45,13.70
2008,09,23,15,46,13.70
2008,09,23,15,47,13.70
2008,09,23,15,48,13.70
2008,09,23,15,49,13.70
2008,09,23,15,50,13.70
2008,09,23,15,51,13.70
2008,09,23,15,52,13.70
2008,09,23,15,53,13.70
2008,09,23,15,54,13.70
2008,09,23,15,55,13.70
2008,09,23,15,56,13.70
2008,09,23,15,57,13.70
2008,09,23,15,58,13.70
2008,09,23,15,59,13.70
2008,09,23,16,00,13.70
2008,09,23,16,01,13.70
2008,09,23,16,02,13.70
2008,09,23,16,03,13.70
2008,09,23,16,04,13.70
2008,09,23,16,05,13.70
2008,09,23,16,06,13.70
2008,09,23,16,07,13.70
2008,09,23,16,08,13.70
2008,09,23,16,09,13.70
2008,09,23,16,10,13.70
2008,09,23,16,11,13.70
2008,09,23,16,12,13.70
2008,09,23,16,13,13.70
2008,09,23,16,14,13.70
2008,09,23,16,15,13.70
2008,09,23,16,16,13.70
2008,09,23,16,17,13.80
2008,09,23,16,18,13.80
2008,09,23,16,19,13.80
2008,09,23,16,20,13.80
2008,09,23,16,21,13.80
2008,09,23,16,22,13.80
2008,09,23,16,23,13.80
2008,09,23,16,24,13.80
2008,09,23,16,25,13.80
2008,09,23,16,26,13.80
2008,09,23,16,27,13.80
2008,09,23,16,28,13.70
2008,09,23,16,29,13.70
2008,09,23,16,30,13.70
2008,09,23,16,31,13.70
2008,09,23,16,32,13.70
2008,09,23,16,33,13.70
2008,09,23,16,34,13.70
2008,09,23,16,35,13.70
2008,09,23,16,36,13.70
2008,09,23,16,37,13.70
2008,09,23,16,38,13.70
2008,09,23,16,39,13.80
2008,09,23,16,40,13.80
2008,09,23,16,41,13.80
2008,09,23,16,42,13.90
2008,09,23,16,43,13.90
2008,09,23,16,44,14.00
2008,09,23,16,45,14.00
2008,09,23,16,46,14.10
2008,09,23,16,47,14.10
2008,09,23,16,48,14.20
2008,09,23,16,49,14.20
2008,09,23,16,50,14.20
2008,09,23,16,51,14.20
2008,09,23,16,52,14.20
2008,09,23,16,53,14.20
2008,09,23,16,54,14.20
2008,09,23,16,55,14.20
2008,09,23,16,56,14.20
2008,09,23,16,57,14.20
2008,09,23,16,58,14.20
2008,09,23,16,59,14.20
2008,09,23,17,00,14.20
2008,09,23,17,01,14.20
2008,09,23,17,02,14.20
2008,09,23,17,03,14.20
2008,09,23,17,04,14.20
2008,09,23,17,05,14.20
2008,09,23,17,06,14.20
2008,09,23,17,07,14.20
2008,09,23,17,08,14.20
2008,09,23,17,09,14.10
2008,09,23,17,10,14.10
2008,09,23,17,11,14.20
2008,09,23,17,12,14.20
2008,09,23,17,13,14.20
2008,09,23,17,14,14.20
2008,09,23,17,15,14.20
2008,09,23,17,16,14.20
2008,09,23,17,17,14.20
2008,09,23,17,18,14.20
2008,09,23,17,19,14.20
2008,09,23,17,20,14.20
2008,09,23,17,21,14.20
2008,09,23,17,22,14.20
2008,09,23,17,23,14.20
2008,09,23,17,24,14.20
2008,09,23,17,25,14.20
2008,09,23,17,26,14.10
2008,09,23,17,27,14.10
2008,09,23,17,28,14.10
2008,09,23,17,29,14.10
2008,09,23,17,30,14.00
2008,09,23,17,31,14.00
2008,09,23,17,32,14.00
2008,09,23,17,33,14.00
2008,09,23,17,34,14.00
2008,09,23,17,35,14.00
2008,09,23,17,36,14.00
2008,09,23,17,37,14.00
2008,09,23,17,38,14.00
2008,09,23,17,39,14.00
2008,09,23,17,40,14.00
2008,09,23,17,41,14.00
2008,09,23,17,42,14.00
2008,09,23,17,43,14.00
2008,09,23,17,44,14.00
2008,09,23,17,45,14.00